This demonstration page uses our WeatherBlox Daily Observations layout. Learn more.

Left ArrowRight Arrow

38.20091, -84.87328

Hourly Observations for January 15, 2020

Temp ( °F °C ) Dew Point ( °F °C ) Humidity (%) Winds ( mph kmh ) Pressure ( in mb ) Visibility ( mi km ) Precip ( " mm )
12:53 am 00:53 Mostly Cloudy with Fog 37 2.8 35 1.7 93 93 Calm 30.17 1022 0 0 0.00 0.00
1:53 am 01:53 Mostly Cloudy with Fog 35 1.7 34 1.1 96 96 Calm 30.16 1021 0 0 0.00 0.00
2:53 am 02:53 Mostly Cloudy with Fog 38 3.3 37 2.8 97 97 Calm 30.16 1021 0 0 0.00 0.00
3:53 am 03:53 Cloudy with Mist and Fog 41 5 40 4.4 96 96 E 5 7 30.14 1021 1 1 0.00 0.00
4:10 am 04:10 Cloudy with Mist and Fog 41 5 40 4.4 96 96 E 3 6 30.17 1022 1 2 0.00 0.00
4:15 am 04:15 Cloudy with Mist and Fog 41 5 40 4.4 96 96 E 3 6 30.16 1021 3 5 0.00 0.00
4:28 am 04:28 Cloudy with Mist and Fog 41 5 40 4.4 96 96 Calm 30.16 1021 5 8 0.00 0.00
4:53 am 04:53 Cloudy with Mist and Fog 42 5.6 41 5 96 96 Calm 30.14 1021 6 10 0.00 0.00
5:30 am 05:30 Cloudy with Mist and Fog 43 6.1 42 5.6 97 97 Calm 30.15 1021 5 8 0.00 0.00
5:53 am 05:53 Cloudy with Mist and Fog 42 5.6 41 5 96 96 Calm 30.13 1020 5 8 0.00 0.00
6:05 am 06:05 Cloudy with Mist and Fog 43 6.1 41 5 93 93 ENE 3 6 30.14 1021 5 8 0.00 0.00
6:13 am 06:13 Cloudy with Mist and Fog 43 6.1 42 5.6 97 97 Calm 30.14 1021 5 8 0.00 0.00
6:42 am 06:42 Cloudy with Mist and Fog 43 6.1 42 5.6 97 97 E 5 7 30.14 1021 5 8 0.00 0.00
6:53 am 06:53 Cloudy with Mist and Fog 44 6.7 43 6.1 96 96 E 5 7 30.12 1020 5 8 0.00 0.00
7:15 am 07:15 Cloudy with Mist and Fog 44 6.7 43 6.1 96 96 Calm 30.13 1020 5 8 0.00 0.00
7:40 am 07:40 Cloudy with Mist and Fog 45 7.2 43 6.1 93 93 E 5 7 30.12 1020 5 8 0.00 0.00
7:53 am 07:53 Cloudy with Mist and Fog 45 7.2 43 6.1 93 93 Calm 30.11 1020 4 6 0.00 0.00
8:08 am 08:08 Cloudy with Mist and Fog 45 7.2 44 6.7 97 97 Calm 30.12 1020 4 6 0.00 0.00
8:16 am 08:16 Cloudy with Mist and Fog 45 7.2 44 6.7 97 97 SE 3 6 30.12 1020 3 4 0.00 0.00
8:25 am 08:25 Cloudy with Light Rain 46 7.8 45 7.2 96 96 Calm 30.13 1020 3 5 0.00 0.00
8:35 am 08:35 Cloudy with Light Rain 46 7.8 45 7.2 96 96 Calm 30.13 1020 2 3 0.02 0.51
8:43 am 08:43 Cloudy with Light Rain 46 7.8 45 7.2 96 96 SE 3 6 30.12 1020 2 3 0.02 0.51
8:51 am 08:51 Cloudy with Mist and Fog 46 8 46 8 100 100 SSE 3 6 30.12 1020 3 5 0.02 0.51
8:53 am 08:53 Cloudy with Mist and Fog 47 8.3 46 7.8 97 97 SE 3 6 30.10 1019 3 5 0.02 0.51
9:01 am 09:01 Mostly Cloudy with Mist and Fog 47 8.3 46 7.8 97 97 SE 5 7 30.11 1019 3 5 0.00 0.00
9:19 am 09:19 Mostly Cloudy with Mist and Fog 48 8.9 47 8.3 96 96 SE 3 6 30.10 1019 3 5 0.00 0.00
9:37 am 09:37 Cloudy with Mist and Fog 50 10 48 8.9 93 93 SE 5 7 30.10 1019 3 5 0.00 0.00
9:47 am 09:47 Cloudy with Mist and Fog 50 10 48 9 94 94 SE 5 7 30.09 1019 3 4 0.00 0.00
9:53 am 09:53 Cloudy with Mist and Fog 51 10.6 49 9.4 92 92 SSE 5 7 30.09 1019 2 3 0.00 0.00
10:09 am 10:09 Cloudy with Mist and Fog 51 10.6 50 10 96 96 SSE 7 11 30.10 1019 1 2 0.00 0.00
10:28 am 10:28 Cloudy with Mist and Fog 52 11.1 51 10.6 97 97 SSE 7 11 30.10 1019 3 4 0.00 0.00
10:53 am 10:53 Cloudy with Mist and Fog 53 11.7 52 11.1 96 96 SSE 6 9 30.08 1019 2 3 0.00 0.00
11:12 am 11:12 Cloudy with Mist and Fog 54 12.2 53 11.7 97 97 S 6 9 30.08 1019 2 3 0.00 0.00
11:30 am 11:30 Cloudy with Light Rain 54 12.2 53 11.7 97 97 S 6 9 30.07 1018 2 2 0.00 0.00
11:53 am 11:53 Cloudy with Mist and Fog 56 13.3 54 12.2 93 93 S 6 9 30.07 1018 2 2 0.00 0.00
12:37 pm 12:37 Cloudy with Mist and Fog 58 14.4 57 13.9 97 97 SSW 7 11 30.03 1017 3 4 0.00 0.00
12:44 pm 12:44 Cloudy with Mist and Fog 58 14.4 57 13.9 97 97 SSW 9 15 30.03 1017 4 6 0.00 0.00
12:53 pm 12:53 Cloudy 59 15 58 14.4 96 96 SSW 9 15 30.02 1017 7 11 0.00 0.00
1:30 pm 13:30 Cloudy 62 16.7 59 15 90 90 SSW 12 19 29.99 1016 10 16 0.00 0.00
1:40 pm 13:40 Cloudy 62 16.7 59 15 90 90 SW 13 20 29.99 1016 10 16 0.00 0.00
1:53 pm 13:53 Cloudy 63 17.2 59 15 87 87 SSW 14 22 30.00 1016 10 16 0.00 0.00
2:04 pm 14:04 Cloudy 63 17.2 59 15 87 87 SW 12 19 29.98 1015 10 16 0.00 0.00
2:42 pm 14:42 Cloudy 65 18.3 60 15.6 84 84 SW 12 19 29.96 1014 10 16 0.00 0.00
2:53 pm 14:53 Cloudy 65 18.3 60 15.6 84 84 SW 12 19 29.98 1015 10 16 0.00 0.00
3:53 pm 15:53 Cloudy 67 19.4 59 15 76 76 WSW 13 20 29.97 1015 10 16 0.00 0.00
4:04 pm 16:04 Cloudy 67 19.4 59 15 76 76 WSW 8 13 29.95 1014 10 16 0.00 0.00
4:53 pm 16:53 Cloudy 66 18.9 57 13.9 73 73 WSW 10 17 29.98 1015 10 16 0.00 0.00
5:41 pm 17:41 Cloudy 66 18.9 56 13.3 70 70 W 14 22 29.99 1016 10 16 0.00 0.00
5:53 pm 17:53 Cloudy 64 17.8 55 12.8 73 73 WNW 16 26 30.02 1017 10 16 0.00 0.00
6:23 pm 18:23 Cloudy 58 14.4 51 10.6 78 78 W 10 17 30.05 1018 10 16 0.00 0.00
6:53 pm 18:53 Mostly Clear 57 13.9 50 10 78 78 W 12 19 30.06 1018 10 16 0.00 0.00
7:23 pm 19:23 Mostly Cloudy 56 13.3 49 9.4 77 77 W 10 17 30.09 1019 10 16 0.00 0.00
7:53 pm 19:53 Mostly Cloudy 54 12.2 46 7.8 75 75 W 9 15 30.11 1020 10 16 0.00 0.00
8:01 pm 20:01 Mostly Clear 54 12.2 45 7.2 72 72 WNW 9 15 30.11 1020 10 16 0.00 0.00
8:53 pm 20:53 Clear 52 11.1 45 7.2 77 77 WNW 6 9 30.12 1020 10 16 0.00 0.00
9:53 pm 21:53 Mostly Cloudy 51 10.6 45 7.2 80 80 WNW 6 9 30.15 1021 10 16 0.00 0.00
10:53 pm 22:53 Clear 49 9.4 45 7.2 86 86 W 5 7 30.17 1022 10 16 0.00 0.00
11:53 pm 23:53 Mostly Clear 48 8.9 45 7.2 89 89 W 5 7 30.19 1023 10 16 0.00 0.00

Powered by AerisWeather